| time (UTC) | temp F | wind direction | speed knots | gust knots | rain 1hr in | rain 24hr in | rain mn in | humidity % | barometer mb |
| 20260502163217 | 52 | 132 | 4.3 | 13.0 | 0.00 | 0.00 | 0.00 | 21 | 1023.3 |
| 20260502162318 | 51 | 124 | 6.1 | 12.2 | 0.00 | 0.00 | 0.00 | 22 | 1023.3 |
| 20260502152017 | 50 | 121 | 4.3 | 10.4 | 0.00 | 0.00 | 0.00 | 27 | 1023.0 |
| 20260502151117 | 49 | 122 | 4.3 | 11.3 | 0.00 | 0.00 | 0.00 | 27 | 1023.0 |
| 20260502130517 | 30 | 225 | 0.9 | 2.6 | 0.00 | 0.00 | 0.00 | 57 | 1022.1 |
| 20260502122917 | 30 | 229 | 0.9 | 2.6 | 0.00 | 0.00 | 0.00 | 57 | 1022.0 |
| 20260502122017 | 29 | 228 | 0.9 | 3.5 | 0.00 | 0.00 | 0.00 | 57 | 1021.8 |
| 20260502121117 | 30 | 233 | 0.9 | 4.3 | 0.00 | 0.00 | 0.00 | 57 | 1022.1 |
| 20260502120217 | 30 | 236 | 0.9 | 2.6 | 0.00 | 0.00 | 0.00 | 58 | 1022.0 |
| 20260502115317 | 30 | 231 | 0.9 | 1.7 | 0.00 | 0.00 | 0.00 | 57 | 1022.0 |
| 20260502113518 | 30 | 244 | 0.9 | 2.6 | 0.00 | 0.00 | 0.00 | 56 | 1022.1 |
| 20260502112617 | 30 | 218 | 0.9 | 2.6 | 0.00 | 0.00 | 0.00 | 56 | 1022.2 |
| 20260502111717 | 30 | 242 | 1.7 | 3.5 | 0.00 | 0.00 | 0.00 | 56 | 1022.3 |
| 20260502110817 | 30 | 245 | 0.9 | 2.6 | 0.00 | 0.00 | 0.00 | 56 | 1022.3 |
| 20260502105917 | 30 | 207 | 1.7 | 4.3 | 0.00 | 0.00 | 0.00 | 56 | 1022.5 |
| 20260502105018 | 30 | 223 | 1.7 | 4.3 | 0.00 | 0.00 | 0.00 | 56 | 1022.3 |
| 20260502104117 | 30 | 228 | 1.7 | 2.6 | 0.00 | 0.00 | 0.00 | 55 | 1022.3 |
| 20260502103217 | 30 | 229 | 0.9 | 2.6 | 0.00 | 0.00 | 0.00 | 55 | 1022.4 |
| 20260502102317 | 30 | 230 | 0.9 | 3.5 | 0.00 | 0.00 | 0.00 | 55 | 1022.4 |
| 20260502101417 | 30 | 211 | 0.9 | 3.5 | 0.00 | 0.00 | 0.00 | 54 | 1022.3 |
| 20260502100517 | 30 | 204 | 0.9 | 1.7 | 0.00 | 0.00 | 0.00 | 54 | 1022.3 |
| 20260502091117 | 31 | 203 | 0.0 | 2.6 | 0.00 | 0.00 | 0.00 | 53 | 1022.7 |
| 20260502090218 | 32 | 226 | 0.9 | 1.7 | 0.00 | 0.00 | 0.00 | 52 | 1022.7 |
| 20260502070517 | 33 | 230 | 0.9 | 2.6 | 0.00 | 0.00 | 0.00 | 52 | 1022.8 |
| 20260502065618 | 33 | 231 | 0.9 | 1.7 | 0.00 | 0.00 | 0.00 | 52 | 1022.9 |
| 20260502064717 | 33 | 229 | 0.9 | 2.6 | 0.00 | 0.00 | 0.00 | 51 | 1023.0 |
| 20260502063818 | 33 | 223 | 0.9 | 2.6 | 0.00 | 0.00 | 0.00 | 51 | 1022.9 |
| 20260502062917 | 33 | 223 | 0.9 | 3.5 | 0.00 | 0.00 | 0.00 | 51 | 1023.0 |
| 20260502062017 | 34 | 216 | 0.9 | 2.6 | 0.00 | 0.00 | 0.00 | 51 | 1022.9 |
| 20260502061117 | 34 | 210 | 0.9 | 3.5 | 0.00 | 0.00 | 0.00 | 50 | 1022.8 |
| 20260502060217 | 34 | 234 | 0.9 | 2.6 | 0.00 | 0.00 | 0.00 | 50 | 1022.6 |
| 20260502055318 | 34 | 246 | 0.9 | 2.6 | 0.00 | 0.00 | 0.00 | 50 | 1022.5 |
| 20260502054417 | 34 | 236 | 1.7 | 3.5 | 0.00 | 0.00 | 0.00 | 50 | 1022.5 |
| 20260502053518 | 35 | 245 | 0.9 | 2.6 | 0.00 | 0.00 | 0.00 | 49 | 1022.5 |
| 20260502052617 | 35 | 238 | 0.9 | 2.6 | 0.00 | 0.00 | 0.00 | 49 | 1022.5 |
| 20260502051718 | 35 | 222 | 1.7 | 3.5 | 0.00 | 0.00 | 0.00 | 49 | 1022.3 |
| 20260502050818 | 35 | 216 | 0.9 | 3.5 | 0.00 | 0.00 | 0.00 | 49 | 1022.2 |
| 20260502045918 | 36 | 219 | 0.9 | 2.6 | 0.00 | 0.00 | 0.00 | 48 | 1022.6 |
| 20260502045017 | 36 | 224 | 0.9 | 2.6 | 0.00 | 0.00 | 0.00 | 48 | 1022.4 |
| 20260502043217 | 37 | 224 | 0.9 | 2.6 | 0.00 | 0.00 | 0.00 | 48 | 1022.4 |
| 20260502042317 | 37 | 222 | 0.9 | 2.6 | 0.00 | 0.00 | 0.00 | 47 | 1022.3 |
| 20260502041418 | 38 | 217 | 0.9 | 2.6 | 0.00 | 0.00 | 0.00 | 47 | 1022.2 |
| 20260502040517 | 38 | 159 | 0.9 | 2.6 | 0.00 | 0.00 | 0.00 | 46 | 1022.1 |
| 20260502035617 | 39 | 0 | 0.0 | 0.0 | 0.00 | 0.00 | 0.00 | 45 | 1022.0 |
| 20260502034717 | 40 | 0 | 0.0 | 0.0 | 0.00 | 0.00 | 0.00 | 44 | 1021.9 |
| 20260502032018 | 42 | 0 | 0.0 | 0.0 | 0.00 | 0.00 | 0.00 | 41 | 1021.4 |
| 20260502031118 | 43 | 0 | 0.0 | 0.0 | 0.00 | 0.00 | 0.00 | 40 | 1021.3 |
| 20260502030217 | 44 | 0 | 0.0 | 0.0 | 0.00 | 0.00 | 0.00 | 39 | 1021.1 |
| 20260502025317 | 44 | 0 | 0.0 | 0.0 | 0.00 | 0.00 | 0.00 | 38 | 1021.0 |
| 20260502024418 | 45 | 55 | 0.0 | 1.7 | 0.00 | 0.00 | 0.00 | 37 | 1020.9 |
| 20260502023517 | 46 | 78 | 0.0 | 1.7 | 0.00 | 0.00 | 0.00 | 36 | 1021.1 |
| 20260502022617 | 48 | 0 | 0.0 | 0.0 | 0.00 | 0.00 | 0.00 | 35 | 1020.9 |
| 20260502021717 | 48 | 0 | 0.0 | 0.0 | 0.00 | 0.00 | 0.00 | 33 | 1020.7 |
| 20260502020817 | 49 | 56 | 0.0 | 1.7 | 0.00 | 0.00 | 0.00 | 31 | 1020.4 |
| 20260502015917 | 49 | 51 | 0.0 | 0.9 | 0.00 | 0.00 | 0.00 | 30 | 1020.9 |
| 20260502015018 | 50 | 346 | 0.9 | 4.3 | 0.00 | 0.00 | 0.00 | 29 | 1020.8 |
| 20260502014117 | 50 | 346 | 0.0 | 2.6 | 0.00 | 0.00 | 0.00 | 28 | 1020.8 |
| 20260502013217 | 51 | 357 | 0.0 | 1.7 | 0.00 | 0.00 | 0.00 | 27 | 1020.7 |
| 20260502012317 | 52 | 12 | 0.9 | 7.0 | 0.00 | 0.00 | 0.00 | 26 | 1020.6 |
| 20260502010517 | 52 | 72 | 1.7 | 7.8 | 0.00 | 0.00 | 0.00 | 24 | 1020.6 |
| 20260502005617 | 52 | 43 | 1.7 | 7.8 | 0.00 | 0.00 | 0.00 | 24 | 1020.4 |
| 20260502004717 | 52 | 31 | 1.7 | 7.0 | 0.00 | 0.00 | 0.00 | 25 | 1020.6 |
| 20260502003817 | 52 | 26 | 1.7 | 7.0 | 0.00 | 0.00 | 0.00 | 24 | 1020.5 |
| 20260502002917 | 52 | 104 | 0.9 | 6.1 | 0.00 | 0.00 | 0.00 | 25 | 1020.5 |
| 20260502002017 | 52 | 67 | 1.7 | 9.6 | 0.00 | 0.00 | 0.00 | 24 | 1020.4 |
| 20260502001118 | 53 | 17 | 1.7 | 7.0 | 0.00 | 0.00 | 0.00 | 24 | 1020.9 |
| 20260502000218 | 53 | 37 | 2.6 | 7.8 | 0.00 | 0.00 | 0.00 | 23 | 1021.0 |
| 20260501235317 | 53 | 39 | 3.5 | 10.4 | 0.00 | 0.00 | 0.00 | 24 | 1021.0 |
| 20260501234417 | 53 | 50 | 3.5 | 8.7 | 0.00 | 0.00 | 0.00 | 24 | 1020.9 |
| 20260501233517 | 54 | 20 | 4.3 | 9.6 | 0.00 | 0.00 | 0.00 | 24 | 1020.7 |
| 20260501232618 | 54 | 56 | 4.3 | 14.8 | 0.00 | 0.00 | 0.00 | 24 | 1020.7 |
| 20260501231717 | 54 | 48 | 2.6 | 11.3 | 0.00 | 0.00 | 0.00 | 25 | 1020.6 |
| 20260501230817 | 54 | 41 | 3.5 | 11.3 | 0.00 | 0.00 | 0.00 | 24 | 1020.9 |
| 20260501224117 | 54 | 29 | 5.2 | 13.0 | 0.00 | 0.00 | 0.00 | 24 | 1021.0 |
| 20260501223218 | 55 | 33 | 3.5 | 13.9 | 0.00 | 0.00 | 0.00 | 24 | 1020.8 |
| 20260501221418 | 55 | 30 | 3.5 | 11.3 | 0.00 | 0.00 | 0.00 | 24 | 1021.1 |
| 20260501220518 | 55 | 58 | 3.5 | 10.4 | 0.00 | 0.00 | 0.00 | 24 | 1021.1 |
| 20260501215617 | 55 | 6 | 1.7 | 7.8 | 0.00 | 0.00 | 0.00 | 25 | 1021.1 |
| 20260501214717 | 54 | 90 | 3.5 | 13.0 | 0.00 | 0.00 | 0.00 | 27 | 1021.2 |
| 20260501185617 | 52 | 77 | 3.5 | 11.3 | 0.00 | 0.00 | 0.00 | 32 | 1021.6 |
| 20260501182917 | 52 | 57 | 1.7 | 8.7 | 0.00 | 0.00 | 0.00 | 33 | 1021.6 |
| 20260501182018 | 50 | 67 | 4.3 | 10.4 | 0.00 | 0.00 | 0.00 | 34 | 1021.6 |
| 20260501181120 | 51 | 71 | 3.5 | 10.4 | 0.00 | 0.00 | 0.00 | 33 | 1021.6 |
| 20260501175318 | 52 | 36 | 1.7 | 7.0 | 0.00 | 0.00 | 0.00 | 33 | 1021.6 |
| 20260501174417 | 51 | 56 | 2.6 | 8.7 | 0.00 | 0.00 | 0.00 | 34 | 1021.6 |
| 20260501173517 | 50 | 67 | 3.5 | 10.4 | 0.00 | 0.00 | 0.00 | 34 | 1021.7 |
| 20260501170817 | 53 | 41 | 1.7 | 7.8 | 0.00 | 0.00 | 0.00 | 32 | 1021.5 |
| 20260501165917 | 52 | 69 | 0.9 | 6.1 | 0.00 | 0.00 | 0.00 | 34 | 1021.4 |
| 20260501165017 | 51 | 59 | 0.9 | 4.3 | 0.00 | 0.00 | 0.00 | 37 | 1021.6 |
| 20260501164117 | 50 | 75 | 1.7 | 7.0 | 0.00 | 0.00 | 0.00 | 37 | 1021.5 |